Location: Ottawa
(45.4167°N, 75.7000°W)
Time: 13:07:01
(UTC-04:00)

ISS - Pass Details

Date: 07 October 2017
Orbit: 401 x 408 km, 51.6° (Epoch: 18 October)

Event Time Altitude Azimuth Distance (km) Brightness Sun altitude
Rises 19:04:40 0° 289° (WNW) 2,323 1.6 -6.7°
Reaches altitude 10° 19:06:58 10° 302° (WNW) 1,465 0.0 -7.1°
Maximum altitude 19:09:48 26° 2° (N) 836 -2.3 -7.6°
Drops below altitude 10° 19:12:39 10° 62° (ENE) 1,468 -1.5 -8.1°
Enters shadow 19:12:53 - 64° (ENE) 1,548 -1.4 -8.1°
